FW8901 Weather Reports


time (UTC)temp
C
wind
direction
speed
KPH
gust
KPH
rain 1hr
cm
rain 24hr
cm
rain mn
cm
humidity
%
barometer
mb
20260510160548 26 0.0 0.0 0.00 0.00 0.00 41 1013.9
20260510160050 26 0.0 0.0 0.00 0.00 0.00 41 1013.9
20260510155546 25 0.0 0.0 0.00 0.00 0.00 44 1014.0
20260510155048 25 0.0 0.0 0.00 0.00 0.00 43 1013.9
20260510154600 25 0.0 0.0 0.00 0.00 0.00 41 1014.0
20260510154047 25 0.0 0.0 0.00 0.00 0.00 45 1014.0
20260510153546 25 0.0 0.0 0.00 0.00 0.00 45 1014.1
20260510153059 25 0.0 0.0 0.00 0.00 0.00 45 1014.1
20260510152547 25 0.0 0.0 0.00 0.00 0.00 47 1014.1
20260510152048 24 0.0 0.0 0.00 0.00 0.00 47 1014.1
20260510151555 24 0.0 0.0 0.00 0.00 0.00 47 1014.0
20260510151048 23 0.0 0.0 0.00 0.00 0.00 46 1014.0
20260510150547 23 0.0 0.0 0.00 0.00 0.00 48 1014.1
20260510150057 23 0.0 0.0 0.00 0.00 0.00 49 1014.0
20260510145548 23 0.0 0.0 0.00 0.00 0.00 49 1014.0
20260510145102 23 0.0 0.0 0.00 0.00 0.00 50 1014.0
20260510144601 23 0.0 0.0 0.00 0.00 0.00 52 1014.0
20260510144048 22 0.0 0.0 0.00 0.00 0.00 50 1013.9
20260510143547 22 0.0 0.0 0.00 0.00 0.00 48 1013.8
20260510143057 22 0.0 0.0 0.00 0.00 0.00 51 1013.8
20260510142604 22 0.0 0.0 0.00 0.00 0.00 51 1013.8
20260510142047 22 0.0 0.0 0.00 0.00 0.00 52 1013.7
20260510141552 21 0.0 0.0 0.00 0.00 0.00 55 1013.7
20260510141049 21 0.0 0.0 0.00 0.00 0.00 59 1013.6
20260510140548 20 0.0 0.0 0.00 0.00 0.00 57 1013.6
20260510140053 20 0.0 0.0 0.00 0.00 0.00 57 1013.6
20260510135548 20 0.0 0.0 0.00 0.00 0.00 61 1013.4
20260510135045 19 0.0 0.0 0.00 0.00 0.00 60 1013.5
20260510134552 18 0.0 0.0 0.00 0.00 0.00 64 1013.5
20260510134047 17 0.0 0.0 0.00 0.00 0.00 67 1013.5
20260510133547 17 0.0 0.0 0.00 0.00 0.00 68 1013.6
20260510133053 17 0.0 0.0 0.00 0.00 0.00 70 1013.5
20260510132549 16 0.0 0.0 0.00 0.00 0.00 71 1013.5
20260510132049 16 0.0 0.0 0.00 0.00 0.00 74 1013.5
20260510131553 16 0.0 0.0 0.00 0.00 0.00 76 1013.4
20260510131049 15 0.0 0.0 0.00 0.00 0.00 78 1013.5
20260510130549 15 0.0 0.0 0.00 0.00 0.00 81 1013.4
20260510130054 15 0.0 0.0 0.00 0.00 0.00 81 1013.5
20260510125544 15 0.0 0.0 0.00 0.00 0.00 82 1013.5
20260510125049 14 0.0 0.0 0.00 0.00 0.00 84 1013.6
20260510124552 13 0.0 0.0 0.00 0.00 0.00 85 1013.6
20260510124052 13 0.0 0.0 0.00 0.00 0.00 87 1013.7
20260510123548 13 0.0 0.0 0.00 0.00 0.00 88 1013.7
20260510123053 13 0.0 0.0 0.00 0.00 0.00 89 1013.6
20260510122549 12 0.0 0.0 0.00 0.00 0.00 89 1013.6
20260510122044 12 0.0 0.0 0.00 0.00 0.00 90 1013.6
20260510121555 12 0.0 0.0 0.00 0.00 0.00 91 1013.5
20260510121049 12 0.0 0.0 0.00 0.00 0.00 91 1013.5
20260510120547 12 0.0 0.0 0.00 0.00 0.00 91 1013.5
20260510120054 12 0.0 0.0 0.00 0.00 0.00 91 1013.5
20260510115548 11 0.0 0.0 0.00 0.00 0.00 91 1013.4
20260510115047 11 0.0 0.0 0.00 0.00 0.00 90 1013.3
20260510114617 11 0.0 0.0 0.00 0.00 0.00 90 1013.2
20260510114049 11 0.0 0.0 0.00 0.00 0.00 90 1013.2
20260510113548 11 0.0 0.0 0.00 0.00 0.00 90 1013.2
20260510113058 11 0.0 0.0 0.00 0.00 0.00 90 1013.1
20260510112548 11 0.0 0.0 0.00 0.00 0.00 90 1013.0
20260510112049 11 0.0 0.0 0.00 0.00 0.00 89 1012.9
20260510111554 11 0.0 0.0 0.00 0.00 0.00 89 1012.8
20260510111048 11 0.0 0.0 0.00 0.00 0.00 89 1012.6
20260510110556 11 0.0 0.0 0.00 0.00 0.00 89 1012.5
20260510110057 11 0.0 0.0 0.00 0.00 0.00 89 1012.4
20260510105548 11 0.0 0.0 0.00 0.00 0.00 88 1012.3
20260510105048 11 0.0 0.0 0.00 0.00 0.00 88 1012.4
20260510104555 11 0.0 0.0 0.00 0.00 0.00 88 1012.2
20260510104047 11 0.0 0.0 0.00 0.00 0.00 88 1012.2
20260510103549 11 0.0 0.0 0.00 0.00 0.00 88 1012.1
20260510103057 11 0.0 0.0 0.00 0.00 0.00 88 1012.1
20260510102548 11 0.0 0.0 0.00 0.00 0.00 88 1012.1
20260510102123 11 0.0 0.0 0.00 0.00 0.00 88 1012.1
20260510101048 11 0.0 0.0 0.00 0.00 0.00 88 1012.0
20260510100548 11 0.0 0.0 0.00 0.00 0.00 88 1011.9
20260510095552 11 0.0 0.0 0.00 0.00 0.00 88 1011.9
20260510095048 11 0.0 0.0 0.00 0.00 0.00 88 1012.0
20260510094555 11 0.0 0.0 0.00 0.00 0.00 88 1011.9
20260510094050 11 0.0 0.0 0.00 0.00 0.00 88 1011.9
20260510093548 11 0.0 0.0 0.00 0.00 0.00 88 1011.8
20260510093052 11 0.0 0.0 0.00 0.00 0.00 88 1011.7
20260510092550 11 0.0 0.0 0.00 0.00 0.00 88 1011.7
20260510092047 11 0.0 0.0 0.00 0.00 0.00 88 1011.6
20260510091554 11 0.0 0.0 0.00 0.00 0.00 88 1011.6
20260510091048 11 0.0 0.0 0.00 0.00 0.00 88 1011.5
20260510090548 11 0.0 0.0 0.00 0.00 0.00 88 1011.6
20260510090114 11 0.0 0.0 0.00 0.00 0.00 88 1011.5
20260510085547 11 0.0 0.0 0.00 0.00 0.00 87 1011.5
20260510085047 11 0.0 0.0 0.00 0.00 0.00 87 1011.5
20260510084607 11 0.0 0.0 0.00 0.00 0.00 87 1011.4
20260510084048 11 0.0 0.0 0.00 0.00 0.00 87 1011.4
20260510083547 11 0.0 0.0 0.00 0.00 0.00 87 1011.4
20260510083054 11 0.0 0.0 0.00 0.00 0.00 87 1011.4
20260510082546 12 0.0 0.0 0.00 0.00 0.00 87 1011.4
20260510082048 12 0.0 0.0 0.00 0.00 0.00 86 1011.3
20260510081604 12 0.0 0.0 0.00 0.00 0.00 86 1011.4
20260510081048 12 0.0 0.0 0.00 0.00 0.00 86 1011.3
20260510080548 12 0.0 0.0 0.00 0.00 0.00 86 1011.3
20260510075547 12 0.0 0.0 0.00 0.00 0.00 85 1011.1
20260510075048 12 0.0 0.0 0.00 0.00 0.00 85 1011.1
20260510074556 12 0.0 0.0 0.00 0.00 0.00 85 1011.0
20260510074049 12 0.0 0.0 0.00 0.00 0.00 85 1010.9
20260510073548 12 0.0 0.0 0.00 0.00 0.00 84 1010.9
20260510073058 12 0.0 0.0 0.00 0.00 0.00 84 1010.8
20260510072548 12 0.0 0.0 0.00 0.00 0.00 84 1010.8
20260510072049 12 0.0 0.0 0.00 0.00 0.00 84 1010.8
20260510071557 12 0.0 0.0 0.00 0.00 0.00 84 1010.8
20260510071047 12 0.0 0.0 0.00 0.00 0.00 83 1010.6
20260510070546 13 0.0 0.0 0.00 0.00 0.00 83 1010.6
20260510070103 13 0.0 0.0 0.00 0.00 0.00 83 1010.4
20260510065546 13 0.0 0.0 0.00 0.00 0.00 83 1010.5
20260510065048 13 0.0 0.0 0.00 0.00 0.00 83 1010.4
20260510064556 13 0.0 0.0 0.00 0.00 0.00 83 1010.4
20260510064048 13 0.0 0.0 0.00 0.00 0.00 83 1010.4
20260510063549 13 0.0 0.0 0.00 0.00 0.00 82 1010.3
20260510063053 13 0.0 0.0 0.00 0.00 0.00 82 1010.3
20260510062548 13 0.0 0.0 0.00 0.00 0.00 82 1010.2
20260510062047 13 0.0 0.0 0.00 0.00 0.00 82 1010.2
20260510061555 13 0.0 0.0 0.00 0.00 0.00 82 1010.2
20260510061051 13 0.0 0.0 0.00 0.00 0.00 82 1010.2
20260510060602 13 0.0 0.0 0.00 0.00 0.00 81 1010.3
20260510060100 13 0.0 0.0 0.00 0.00 0.00 81 1010.3
20260510055549 13 0.0 0.0 0.00 0.00 0.00 81 1010.4
20260510055047 13 0.0 0.0 0.00 0.00 0.00 81 1010.4
20260510054553 14 0.0 0.0 0.00 0.00 0.00 81 1010.4
20260510054049 14 0.0 0.0 0.00 0.00 0.00 81 1010.5
20260510053547 14 0.0 0.0 0.00 0.00 0.00 81 1010.3
20260510053059 14 0.0 0.0 0.00 0.00 0.00 81 1010.4
20260510052546 14 0.0 0.0 0.00 0.00 0.00 81 1010.4
20260510052046 14 0.0 0.0 0.00 0.00 0.00 81 1010.4
20260510051607 14 0.0 0.0 0.00 0.00 0.00 80 1010.4
20260510051057 14 0.0 0.0 0.00 0.00 0.00 80 1010.3
20260510050551 14 0.0 0.0 0.00 0.00 0.00 80 1010.4
20260510050105 14 0.0 0.0 0.00 0.00 0.00 80 1010.4
20260510045548 14 0.0 0.0 0.00 0.00 0.00 80 1010.4
20260510045049 14 0.0 0.0 0.00 0.00 0.00 80 1010.4
20260510044552 15 0.0 0.0 0.00 0.00 0.00 80 1010.3
20260510044048 15 0.0 0.0 0.00 0.00 0.00 80 1010.2
20260510043548 15 0.0 0.0 0.00 0.00 0.00 80 1010.2
20260510043054 15 0.0 0.0 0.00 0.00 0.00 80 1010.2
20260510042549 15 0.0 0.0 0.00 0.00 0.00 80 1010.1
20260510042048 15 0.0 0.0 0.00 0.00 0.00 80 1010.1
20260510041605 15 0.0 0.0 0.00 0.00 0.00 80 1010.1
20260510041049 15 0.0 0.0 0.00 0.00 0.00 79 1010.1
20260510040551 15 0.0 0.0 0.00 0.00 0.00 79 1010.2
20260510040107 15 0.0 0.0 0.00 0.00 0.00 79 1010.3
20260510035549 15 0.0 0.0 0.00 0.00 0.00 79 1010.2
20260510035048 15 0.0 0.0 0.00 0.00 0.00 79 1010.2
20260510034553 15 0.0 0.0 0.00 0.00 0.00 78 1010.3
20260510034049 15 0.0 0.0 0.00 0.00 0.00 78 1010.3
20260510033547 15 0.0 0.0 0.00 0.00 0.00 78 1010.3
20260510033107 15 0.0 0.0 0.00 0.00 0.00 78 1010.2
20260510032545 15 0.0 0.0 0.00 0.00 0.00 78 1010.2
20260510032049 16 0.0 0.0 0.00 0.00 0.00 78 1010.2
20260510031559 16 0.0 0.0 0.00 0.00 0.00 77 1010.1
20260510031049 16 0.0 0.0 0.00 0.00 0.00 76 1009.9
20260510030544 16 0.0 0.0 0.00 0.00 0.00 77 1010.0
20260510025548 16 0.0 0.0 0.00 0.00 0.00 76 1009.9
20260510025049 16 0.0 0.0 0.00 0.00 0.00 76 1009.9
20260510024551 16 0.0 0.0 0.00 0.00 0.00 75 1010.0
20260510024048 16 0.0 0.0 0.00 0.00 0.00 76 1009.8
20260510023548 16 0.0 0.0 0.00 0.00 0.00 75 1009.7
20260510023054 16 0.0 0.0 0.00 0.00 0.00 74 1009.7
20260510022554 16 0.0 0.0 0.00 0.00 0.00 74 1009.8
20260510022050 16 0.0 0.0 0.00 0.00 0.00 74 1009.8
20260510021642 16 0.0 0.0 0.00 0.00 0.00 73 1009.7
20260510021049 17 0.0 0.0 0.00 0.00 0.00 73 1009.7
20260510020550 17 0.0 0.0 0.00 0.00 0.00 73 1009.6
20260510020059 17 0.0 0.0 0.00 0.00 0.00 72 1009.6
20260510015552 17 0.0 0.0 0.00 0.00 0.00 72 1009.5
20260510015050 17 0.0 0.0 0.00 0.00 0.00 72 1009.4
20260510014600 17 0.0 0.0 0.00 0.00 0.00 72 1009.4
20260510014049 17 0.0 0.0 0.00 0.00 0.00 72 1009.3
20260510013550 17 0.0 0.0 0.00 0.00 0.00 71 1009.3
20260510013107 17 0.0 0.0 0.00 0.00 0.00 71 1009.3
20260510012549 17 0.0 0.0 0.00 0.00 0.00 71 1009.2
20260510012049 18 0.0 0.0 0.00 0.00 0.00 70 1008.9
20260510011555 18 0.0 0.0 0.00 0.00 0.00 70 1008.9
20260510011048 18 0.0 0.0 0.00 0.00 0.00 70 1008.8
20260510010549 18 0.0 0.0 0.00 0.00 0.00 69 1008.7
20260510010100 18 0.0 0.0 0.00 0.00 0.00 69 1008.7
20260510005550 18 0.0 0.0 0.00 0.00 0.00 69 1008.7
20260510005049 18 0.0 0.0 0.00 0.00 0.00 68 1008.6
20260510004605 19 0.0 0.0 0.00 0.00 0.00 68 1008.6
20260510004049 19 0.0 0.0 0.00 0.00 0.00 68 1008.6
20260510003550 19 0.0 0.0 0.00 0.00 0.00 68 1008.4
20260510003103 20 0.0 0.0 0.00 0.00 0.00 67 1008.3
20260510002555 20 0.0 0.0 0.00 0.00 0.00 66 1008.4
20260510002049 20 0.0 0.0 0.00 0.00 0.00 66 1008.4
20260510001603 20 0.0 0.0 0.00 0.00 0.00 66 1008.5
20260510001049 20 0.0 0.0 0.00 0.00 0.00 65 1008.3
20260510000550 20 0.0 0.0 0.00 0.00 0.00 65 1008.3
20260510000055 21 0.0 0.0 0.00 0.00 0.00 64 1008.3
20260509235546 21 0.0 0.0 0.00 0.00 0.00 64 1008.2
20260509235049 21 0.0 0.0 0.00 0.00 0.00 62 1008.1
20260509234555 21 0.0 0.0 0.00 0.00 0.00 60 1008.1
20260509234109 21 0.0 0.0 0.00 0.00 0.00 60 1008.1
20260509233550 21 0.0 0.0 0.00 0.00 0.00 61 1008.0
20260509233054 22 0.0 0.0 0.00 0.00 0.00 60 1008.0
20260509232550 22 0.0 0.0 0.00 0.00 0.00 59 1008.0
20260509232050 22 0.0 0.0 0.00 0.00 0.00 59 1008.0
20260509231553 22 0.0 0.0 0.00 0.00 0.00 59 1008.0
20260509231049 22 0.0 0.0 0.00 0.00 0.00 58 1008.0
20260509230548 22 0.0 0.0 0.00 0.00 0.00 58 1008.0
20260509230054 22 0.0 0.0 0.00 0.00 0.00 58 1008.0
20260509225548 22 0.0 0.0 0.00 0.00 0.00 57 1007.9
20260509225049 22 0.0 0.0 0.00 0.00 0.00 59 1008.0
20260509224553 22 0.0 0.0 0.00 0.00 0.00 58 1008.0
20260509224047 22 0.0 0.0 0.00 0.00 0.00 57 1008.0
20260509223549 22 0.0 0.0 0.00 0.00 0.00 57 1008.0
20260509223057 22 0.0 0.0 0.00 0.00 0.00 58 1008.0
20260509222550 22 0.0 0.0 0.00 0.00 0.00 58 1008.1
20260509222049 22 0.0 0.0 0.00 0.00 0.00 58 1008.2
20260509221556 22 0.0 0.0 0.00 0.00 0.00 56 1008.0
20260509221048 22 0.0 0.0 0.00 0.00 0.00 56 1008.1
20260509220546 22 0.0 0.0 0.00 0.00 0.00 53 1008.1
20260509220058 22 0.0 0.0 0.00 0.00 0.00 55 1008.1
20260509215547 22 0.0 0.0 0.00 0.00 0.00 53 1008.1
20260509215047 22 0.0 0.0 0.00 0.00 0.00 53 1008.0
20260509214556 22 0.0 0.0 0.00 0.00 0.00 52 1008.1
20260509214046 22 0.0 0.0 0.00 0.00 0.00 52 1008.0
20260509213549 22 0.0 0.0 0.00 0.00 0.00 53 1008.0
20260509213114 22 0.0 0.0 0.00 0.00 0.00 50 1008.0
20260509212547 22 0.0 0.0 0.00 0.00 0.00 49 1007.9
20260509212048 23 0.0 0.0 0.00 0.00 0.00 50 1007.9
20260509211604 23 0.0 0.0 0.00 0.00 0.00 48 1007.9
20260509211048 23 0.0 0.0 0.00 0.00 0.00 49 1007.7
20260509210548 23 0.0 0.0 0.00 0.00 0.00 48 1007.7
20260509210056 23 0.0 0.0 0.00 0.00 0.00 52 1007.7
20260509205549 23 0.0 0.0 0.00 0.00 0.00 50 1007.7
20260509205051 23 0.0 0.0 0.00 0.00 0.00 48 1007.8
20260509204558 24 0.0 0.0 0.00 0.00 0.00 51 1007.7
20260509204048 23 0.0 0.0 0.00 0.00 0.00 50 1007.7
20260509203549 23 0.0 0.0 0.00 0.00 0.00 49 1007.7
20260509203101 24 0.0 0.0 0.00 0.00 0.00 46 1007.7
20260509202548 25 0.0 0.0 0.00 0.00 0.00 48 1007.7
20260509202048 25 0.0 0.0 0.00 0.00 0.00 47 1007.8
20260509201558 25 0.0 0.0 0.00 0.00 0.00 43 1007.8
20260509201048 24 0.0 0.0 0.00 0.00 0.00 45 1007.8
20260509200548 25 0.0 0.0 0.00 0.00 0.00 45 1007.8
20260509200055 25 0.0 0.0 0.00 0.00 0.00 45 1007.9
20260509195548 24 0.0 0.0 0.00 0.00 0.00 44 1007.9
20260509195047 24 0.0 0.0 0.00 0.00 0.00 46 1008.0
20260509194601 25 0.0 0.0 0.00 0.00 0.00 47 1008.1
20260509194047 24 0.0 0.0 0.00 0.00 0.00 47 1008.2
20260509193547 23 0.0 0.0 0.00 0.00 0.00 49 1008.3
20260509193058 23 0.0 0.0 0.00 0.00 0.00 52 1008.3
20260509192547 23 0.0 0.0 0.00 0.00 0.00 54 1008.5
20260509192047 22 0.0 0.0 0.00 0.00 0.00 56 1008.6
20260509191604 22 0.0 0.0 0.00 0.00 0.00 54 1008.6
20260509191049 22 0.0 0.0 0.00 0.00 0.00 53 1008.6
20260509190552 23 0.0 0.0 0.00 0.00 0.00 51 1008.7
20260509190053 23 0.0 0.0 0.00 0.00 0.00 56 1008.8
20260509185548 23 0.0 0.0 0.00 0.00 0.00 56 1008.8
20260509185048 22 0.0 0.0 0.00 0.00 0.00 58 1008.8
20260509184601 21 0.0 0.0 0.00 0.00 0.00 59 1008.9
20260509184048 21 0.0 0.0 0.00 0.00 0.00 61 1009.1
20260509183552 21 0.0 0.0 0.00 0.00 0.00 58 1009.2
20260509183101 22 0.0 0.0 0.00 0.00 0.00 58 1009.1
20260509182547 21 0.0 0.0 0.00 0.00 0.00 59 1009.3
20260509182048 21 0.0 0.0 0.00 0.00 0.00 61 1009.5
20260509181559 21 0.0 0.0 0.00 0.00 0.00 59 1009.6
20260509181047 21 0.0 0.0 0.00 0.00 0.00 59 1009.7
20260509180548 21 0.0 0.0 0.00 0.00 0.00 60 1009.7
20260509180116 21 0.0 0.0 0.00 0.00 0.00 61 1009.8
20260509175551 21 0.0 0.0 0.00 0.00 0.00 60 1009.7
20260509175046 20 0.0 0.0 0.00 0.00 0.00 60 1009.8
20260509174555 20 0.0 0.0 0.00 0.00 0.00 60 1009.9
20260509174045 20 0.0 0.0 0.00 0.00 0.00 61 1009.8
20260509173547 20 0.0 0.0 0.00 0.00 0.00 60 1010.0
20260509173106 20 0.0 0.0 0.00 0.00 0.00 60 1010.0
20260509172548 20 0.0 0.0 0.00 0.00 0.00 61 1010.2
20260509172048 20 0.0 0.0 0.00 0.00 0.00 63 1010.1
20260509171556 20 0.0 0.0 0.00 0.00 0.00 61 1010.1
20260509171047 20 0.0 0.0 0.00 0.00 0.00 61 1010.1
20260509170548 20 0.0 0.0 0.00 0.00 0.00 62 1010.1
20260509170057 20 0.0 0.0 0.00 0.00 0.00 60 1010.1
20260509165546 20 0.0 0.0 0.00 0.00 0.00 59 1010.1
20260509165046 20 0.0 0.0 0.00 0.00 0.00 59 1010.0
20260509164555 20 0.0 0.0 0.00 0.00 0.00 60 1010.0
20260509164047 20 0.0 0.0 0.00 0.00 0.00 57 1010.0
20260509163550 21 0.0 0.0 0.00 0.00 0.00 56 1010.1
20260509163059 20 0.0 0.0 0.00 0.00 0.00 58 1010.2
20260509162548 20 0.0 0.0 0.00 0.00 0.00 61 1010.3
20260509162047 20 0.0 0.0 0.00 0.00 0.00 61 1010.4
20260509161603 19 0.0 0.0 0.00 0.00 0.00 60 1010.5
20260509161048 19 0.0 0.0 0.00 0.00 0.00 59 1010.5